• Join FlightAware (Why Join?)
  • Login
  • US Flag GB Flag 
00:53 EDT


 

Airport Tracker/Info


-or-


 

Live Flight TrackerFlight Track Log ✈ UAL3776 ✈ 11-Apr-2013 ✈ KIAD - KRDU

Flight Track Log - Related Links

Times and Time Zones

All times are in EDT time to prevent confusion due to time zone crossing. See the UAL3776 flight status page for this flight to view local times or setup timezone preferences in your user account.

Time Position Orientation Groundspeed Altitude Reporting Facility
EDT Latitude Longitude Course Direction KTS MPH feet Rate Location/Type
16:05 38.9333 -77.5333 218° Southwest 180 207 1,900  Level Potomac TRACON
16:06 38.9000 -77.6000 237° Southwest 263 303 3,600 1,500 Climbing Potomac TRACON
16:07 38.6501 -77.5937 189° South  Level Estimated
16:07 38.8333 -77.6333 201° Southwest 259 298 4,900  Level Potomac TRACON
16:08 38.5509 -77.6380 185° South  Level Estimated
16:08 38.7667 -77.6167 169° South 266 306 7,100  Level Potomac TRACON
16:09 38.4538 -77.5870 158° South  Level FlightAware Approximate
16:09 38.6833 -77.6167 180° South 271 312 10,000  Level Potomac TRACON
16:10 38.3556 -77.6344 218° Southwest  Level Estimated
16:11 38.5758 -77.5781 164° South 280 322 13,600  Level Washington Center
16:12 38.5000 -77.5125 146° Southeast 285 328 15,700 2,100 Climbing Washington Center
16:13 38.4325 -77.5531 205° Southwest 274 315 17,900 2,100 Climbing Washington Center
16:14 38.3522 -77.6064 208° Southwest 297 342 19,900 1,200 Climbing Washington Center
16:15 38.2806 -77.6681 214° Southwest 335 386 20,400 1,200 Climbing Washington Center
16:16 38.1892 -77.7500 215° Southwest 366 421 22,400 1,620 Climbing Washington Center
16:17 38.1025 -77.8189 212° Southwest 372 428 23,700 780 Climbing Washington Center
16:18 38.0219 -77.8878 214° Southwest 385 443 24,000 120 Climbing Washington Center
16:19 37.9328 -77.9667 215° Southwest 392 451 24,000  Level Washington Center
16:20 37.8394 -78.0450 214° Southwest 404 465 24,000  Level Washington Center
16:21 37.7503 -78.1211 214° Southwest 404 465 24,000  Level Washington Center
16:22 37.6506 -78.2069 214° Southwest 404 465 24,000 -60 Level Washington Center
16:23 37.5656 -78.2800 214° Southwest 410 472 23,900 -600 Descending Washington Center
16:24 37.4761 -78.3528 213° Southwest 403 464 22,900 -960 Descending Washington Center
16:25 37.3889 -78.4281 214° Southwest 398 458 22,000 -480 Descending Washington Center
16:26 37.3017 -78.4978 212° Southwest 391 450 22,000  Level Washington Center
16:27 37.2122 -78.5728 214° Southwest 386 444 22,000  Level Washington Center
16:28 37.1122 -78.6547 213° Southwest 386 444 22,000 -480 Level Washington Center
16:29 37.0347 -78.7428 222° Southwest 386 444 21,100 -1,440 Descending Washington Center
16:30 36.9675 -78.8414 230° Southwest 380 437 19,200 -1,920 Descending Washington Center
16:31 36.9042 -78.9400 231° Southwest 380 437 17,300 -1,200 Descending Washington Center
16:32 36.8436 -79.0125 224° Southwest 360 414 16,900 -180 Descending Washington Center
16:33 36.7536 -79.0269 187° South 313 360 17,000 -180 Climbing Washington Center
16:34 36.6517 -79.0119 173° South 323 372 16,600 -1,260 Descending Washington Center
16:34 36.6103 -78.9997 167° South 345 397 15,300 -3,360 Descending Washington Center
16:35 36.5567 -78.9844 167° South 331 381 13,300 -3,360 Descending Washington Center
16:35 36.5153 -78.9697 164° South 347 399 11,900 -3,120 Descending Washington Center
16:36 36.4633 -78.9597 171° South 344 396 10,200 -1,980 Descending Washington Center
16:36 36.4242 -78.9453 163° South 346 398 9,900 -240 Descending Washington Center
16:37 36.3811 -78.9228 157° South 343 395 10,000 -540 Climbing Washington Center
16:37 36.3567 -78.8983 141° Southeast 261 300 9,400 -1,440 Descending Washington Center
16:38 36.3242 -78.8686 144° Southeast 277 319 8,600 -1,560 Descending Washington Center
16:38 36.3017 -78.8522 150° Southeast 252 290 8,000 -600 Descending Washington Center
16:39 36.2631 -78.8147 142° Southeast 271 312 8,000 -120 Level Washington Center
16:39 36.2406 -78.7956 146° Southeast 255 293 7,900 -600 Descending Washington Center
16:40 36.2100 -78.7661 142° Southeast 250 288 7,400 -1,500 Descending Washington Center
16:40 36.1833 -78.7444 147° Southeast 235 270 6,400 -1,320 Descending Washington Center
16:41 36.1592 -78.7178 138° Southeast 243 280 6,100 -600 Descending Washington Center
16:41 36.1406 -78.7042 149° Southeast 232 267 5,900 -420 Descending Washington Center
16:42 36.1103 -78.6722 140° Southeast 232 267 5,700 -1,080 Descending Washington Center
16:42 36.0858 -78.6456 139° Southeast 222 255 4,700 -1,620 Descending Washington Center
16:43 36.0636 -78.6189 136° Southeast 227 261 4,100 -720 Descending Washington Center
16:43 36.0367 -78.6075 161° South 203 234 4,000 -900 Descending Washington Center
16:44 36.0117 -78.6117 188° South 185 213 3,200 -1,140 Descending Washington Center
16:44 35.9942 -78.6419 234° Southwest 201 231 2,900 -600 Descending Washington Center